Plainview, TX

3:17 AM CDT on May 21, 2018 (GMT -0500)
Hale County

Weather History for KPVW - December, 2012

Change the Weather History Date:

Saturday, December 15, 2012

  Actual Average Record
Temperature  
Mean Temperature 46 °F -  
Max Temperature 55 °F 50 °F 77 °F (1908)
Min Temperature 37 °F 24 °F -2 °F (1987)
Degree Days  
Heating Degree Days 19    
Moisture  
Dew Point 30 °F    
Average Humidity 58    
Maximum Humidity 75    
Minimum Humidity 35    
Precipitation  
Precipitation 0.00 in - - ()
Sea Level Pressure  
Sea Level Pressure 29.83 in    
Wind  
Wind Speed 19 mph (WSW)    
Max Wind Speed 31 mph    
Max Gust Speed 40 mph    
Visibility 10 miles    
Events      
Averages and records for this station are not official NWS values.
T = Trace of Precipitation, MM = Missing Value Source: NWS Daily Summary

Daily Weather History Graph

Daily Weather History Graph

Search for Another Location

Airport or City:

Astronomy

Dec. 15, 2012 Rise Set
Actual Time 7:45 AM CST 5:38 PM CST
Civil Twilight 7:17 AM CST 6:06 PM CST
Nautical Twilight 6:46 AM CST 6:38 PM CST
Astronomical Twilight 6:15 AM CST 7:08 PM CST
Moon 9:44 AM CST (12/15) 8:39 PM CST (12/15)
Length of Visible Light 10h 48m
Length of Day
9h 53m
Waxing Crescent, 8% of the Moon is Illuminated
Dec 15
Waxing Crescent
Dec 19
First Quarter
Dec 28
Full
Jan 4
Last Quarter
Jan 11
New

Hourly Weather History & Observations

Time (CST) Temp. Windchill Dew Point Humidity Pressure Visibility Wind Dir Wind Speed Gust Speed Precip Events Conditions
12:15 AM 41.0 °F 31.6 °F 30.2 °F 65% 29.82 in 10.0 mi WSW 20.7 mph - N/A   Clear
12:35 AM 41.0 °F 32.2 °F 30.2 °F 65% 29.82 in 10.0 mi WSW 18.4 mph 24.2 mph N/A   Clear
12:55 AM 41.0 °F 31.9 °F 30.2 °F 65% 29.81 in 10.0 mi West 19.6 mph - N/A   Clear
1:15 AM 41.0 °F 31.6 °F 30.2 °F 65% 29.81 in 10.0 mi West 20.7 mph - N/A   Clear
1:35 AM 41.0 °F 31.6 °F 30.2 °F 65% 29.81 in 10.0 mi West 20.7 mph - N/A   Clear
1:55 AM 41.0 °F 32.2 °F 30.2 °F 65% 29.81 in 10.0 mi West 18.4 mph 27.6 mph N/A   Clear
2:15 AM 39.2 °F 29.8 °F 30.2 °F 70% 29.81 in 10.0 mi WSW 18.4 mph - N/A   Clear
2:35 AM 39.2 °F 30.5 °F 30.2 °F 70% 29.81 in 10.0 mi WSW 16.1 mph - N/A   Clear
2:55 AM 39.2 °F 30.2 °F 32.0 °F 75% 29.81 in 10.0 mi WSW 17.3 mph - N/A   Clear
3:15 AM 39.2 °F 29.8 °F 32.0 °F 75% 29.81 in 10.0 mi WSW 18.4 mph - N/A   Clear
3:35 AM 37.4 °F 27.8 °F 30.2 °F 75% 29.82 in 10.0 mi WSW 17.3 mph - N/A   Clear
3:55 AM 39.2 °F 29.6 °F 30.2 °F 70% 29.81 in 10.0 mi WSW 19.6 mph - N/A   Clear
4:15 AM 39.2 °F 29.8 °F 30.2 °F 70% 29.81 in 10.0 mi WSW 18.4 mph - N/A   Clear
4:35 AM 39.2 °F 29.6 °F 30.2 °F 70% 29.81 in 10.0 mi West 19.6 mph - N/A   Clear
4:55 AM 39.2 °F 29.3 °F 30.2 °F 70% 29.81 in 10.0 mi WSW 20.7 mph - N/A   Clear
5:15 AM 39.2 °F 29.6 °F 30.2 °F 70% 29.81 in 10.0 mi West 19.6 mph - N/A   Clear
5:35 AM 39.2 °F 29.8 °F 30.2 °F 70% 29.81 in 10.0 mi WSW 18.4 mph - N/A   Clear
5:55 AM 39.2 °F 29.0 °F 30.2 °F 70% 29.81 in 10.0 mi WSW 21.9 mph - N/A   Clear
6:15 AM 39.2 °F 30.2 °F 30.2 °F 70% 29.82 in 10.0 mi WSW 17.3 mph 24.2 mph N/A   Clear
6:35 AM 39.2 °F 29.3 °F 30.2 °F 70% 29.82 in 10.0 mi WSW 20.7 mph 25.3 mph N/A   Clear
6:55 AM 39.2 °F 29.8 °F 30.2 °F 70% 29.83 in 10.0 mi WSW 18.4 mph 24.2 mph N/A   Clear
7:15 AM 37.4 °F 27.8 °F 30.2 °F 75% 29.84 in 10.0 mi West 17.3 mph - N/A   Clear
7:35 AM 37.4 °F 28.2 °F 30.2 °F 75% 29.84 in 10.0 mi West 16.1 mph 23.0 mph N/A   Clear
7:55 AM 39.2 °F 30.2 °F 30.2 °F 70% 29.84 in 10.0 mi West 17.3 mph - N/A   Clear
8:15 AM 37.4 °F 27.8 °F 30.2 °F 75% 29.83 in 10.0 mi West 17.3 mph - N/A   Clear
8:35 AM 39.2 °F 30.5 °F 30.2 °F 70% 29.84 in 10.0 mi West 16.1 mph - N/A   Clear
8:55 AM 39.2 °F 30.2 °F 30.2 °F 70% 29.85 in 10.0 mi West 17.3 mph 23.0 mph N/A   Clear
9:15 AM 39.2 °F 29.8 °F 30.2 °F 70% 29.86 in 10.0 mi WSW 18.4 mph 27.6 mph N/A   Clear
9:35 AM 39.2 °F 29.6 °F 30.2 °F 70% 29.87 in 10.0 mi West 19.6 mph - N/A   Clear
9:55 AM 41.0 °F 31.9 °F 30.2 °F 65% 29.88 in 10.0 mi West 19.6 mph 26.5 mph N/A   Clear
10:15 AM 41.0 °F 31.1 °F 30.2 °F 65% 29.88 in 10.0 mi West 23.0 mph 31.1 mph N/A   Clear
10:35 AM 42.8 °F 32.9 °F 32.0 °F 66% 29.87 in 10.0 mi West 26.5 mph 31.1 mph N/A   Clear
10:55 AM 46.4 °F 37.9 °F 32.0 °F 57% 29.88 in 10.0 mi West 25.3 mph 32.2 mph N/A   Clear
11:15 AM 50.0 °F - 32.0 °F 50% 29.88 in 10.0 mi West 26.5 mph 36.8 mph N/A   Clear
11:35 AM 50.0 °F - 30.2 °F 47% 29.88 in 10.0 mi West 27.6 mph 40.3 mph N/A   Clear
11:55 AM 51.8 °F - 30.2 °F 44% 29.88 in 10.0 mi West 26.5 mph 34.5 mph N/A   Clear
12:15 PM 53.6 °F - 32.0 °F 44% 29.86 in 10.0 mi West 28.8 mph 33.4 mph N/A   Clear
12:35 PM 53.6 °F - 30.2 °F 41% 29.85 in 10.0 mi West 27.6 mph 36.8 mph N/A   Clear
12:55 PM 55.4 °F - 28.4 °F 36% 29.84 in 10.0 mi West 26.5 mph 35.7 mph N/A   Clear
1:15 PM 55.4 °F - 28.4 °F 36% 29.83 in 10.0 mi West 28.8 mph 35.7 mph N/A   Clear
1:35 PM 55.4 °F - 28.4 °F 36% 29.81 in 10.0 mi West 28.8 mph 35.7 mph N/A   Clear
1:55 PM 55.4 °F - 28.4 °F 36% 29.82 in 10.0 mi West 31.1 mph 36.8 mph N/A   Clear
2:15 PM 55.4 °F - 28.4 °F 36% 29.80 in 10.0 mi West 26.5 mph 33.4 mph N/A   Clear
2:35 PM 55.4 °F - 28.4 °F 36% 29.80 in 10.0 mi West 23.0 mph 32.2 mph N/A   Clear
2:55 PM 55.4 °F - 28.4 °F 36% 29.80 in 10.0 mi West 21.9 mph 32.2 mph N/A   Clear
3:15 PM 55.4 °F - 28.4 °F 36% 29.81 in 10.0 mi West 25.3 mph 33.4 mph N/A   Clear
3:35 PM 55.4 °F - 28.4 °F 36% 29.80 in 10.0 mi West 25.3 mph 31.1 mph N/A   Clear
3:55 PM 55.4 °F - 28.4 °F 36% 29.81 in 10.0 mi West 20.7 mph 29.9 mph N/A   Clear
4:15 PM 53.6 °F - 26.6 °F 35% 29.81 in 10.0 mi WSW 19.6 mph 28.8 mph N/A   Clear
4:35 PM 53.6 °F - 28.4 °F 38% 29.81 in 10.0 mi WSW 18.4 mph 25.3 mph N/A   Clear
4:55 PM 53.6 °F - 30.2 °F 41% 29.82 in 10.0 mi WSW 18.4 mph 25.3 mph N/A   Clear
5:15 PM 53.6 °F - 28.4 °F 38% 29.82 in 10.0 mi WSW 18.4 mph - N/A   Clear
5:35 PM 51.8 °F - 28.4 °F 41% 29.82 in 10.0 mi WSW 15.0 mph - N/A   Clear
5:55 PM 50.0 °F - 28.4 °F 43% 29.82 in 10.0 mi SW 11.5 mph - N/A   Clear
6:15 PM 50.0 °F - 28.4 °F 43% 29.83 in 10.0 mi SW 13.8 mph - N/A   Clear
6:35 PM 50.0 °F - 30.2 °F 47% 29.84 in 10.0 mi WSW 15.0 mph - N/A   Clear
6:55 PM 50.0 °F - 30.2 °F 47% 29.84 in 10.0 mi WSW 15.0 mph - N/A   Clear
7:15 PM 50.0 °F - 30.2 °F 47% 29.84 in 10.0 mi WSW 10.4 mph - N/A   Clear
7:35 PM 46.4 °F 41.5 °F 32.0 °F 57% 29.84 in 10.0 mi SW 10.4 mph - N/A   Clear
7:55 PM 44.6 °F 39.2 °F 32.0 °F 61% 29.84 in 10.0 mi WSW 10.4 mph - N/A   Clear
8:15 PM 44.6 °F 39.7 °F 32.0 °F 61% 29.84 in 10.0 mi WSW 9.2 mph - N/A   Clear
8:35 PM 44.6 °F 39.7 °F 32.0 °F 61% 29.84 in 10.0 mi WSW 9.2 mph - N/A   Clear
8:55 PM 42.8 °F 38.0 °F 32.0 °F 66% 29.83 in 10.0 mi SW 8.1 mph - N/A   Clear
9:15 PM 42.8 °F 37.5 °F 32.0 °F 66% 29.84 in 10.0 mi SW 9.2 mph - N/A   Clear
9:35 PM 42.8 °F 36.6 °F 32.0 °F 66% 29.83 in 10.0 mi WSW 11.5 mph - N/A   Clear
9:55 PM 44.6 °F 39.2 °F 32.0 °F 61% 29.82 in 10.0 mi WSW 10.4 mph - N/A   Clear
10:15 PM 42.8 °F 37.5 °F 32.0 °F 66% 29.82 in 10.0 mi WSW 9.2 mph - N/A   Clear
10:35 PM 42.8 °F 37.0 °F 32.0 °F 66% 29.81 in 10.0 mi WSW 10.4 mph - N/A   Clear
10:55 PM 42.8 °F 36.6 °F 32.0 °F 66% 29.81 in 10.0 mi West 11.5 mph - N/A   Clear
11:15 PM 42.8 °F 37.5 °F 32.0 °F 66% 29.81 in 10.0 mi WSW 9.2 mph - N/A   Clear
11:35 PM 41.0 °F 35.8 °F 32.0 °F 70% 29.82 in 10.0 mi WSW 8.1 mph - N/A   Clear
11:55 PM 39.2 °F 34.2 °F 32.0 °F 75% 29.82 in 10.0 mi SW 6.9 mph - N/A   Clear